Flag for U.S.A. Weather past 2 weeks in Livonia, Michigan, U.S.A.

Now
74 °F

Broken clouds.


Feels Like: 77 °F
Forecast: 67 / 81 °F
Wind: 7 mph from East

Location: Detroit Metropolitan Wayne County Airport

Current Time: May 24, 2015 at 10:03:53 PM

Latest Report: May 24, 2015 at 8:53 PM


Visibility: 10 mi

Pressure: 30.09 "Hg

Humidity: 43%

Dew point: 50 °F

Location of LivoniaLocation

Historic Weather in Livonia — Graph

°F

Livonia temperature yesterday

Maximum temperature yesterday: 75 °F (at 3:53 PM)
Minimum temperature yesterday: 41 °F (at 5:53 AM)
Average temperature yesterday: 60 °F

Past Weeks' High & Low Weather Summary

 TemperatureHumidityPressure
High84 °F (May 18, 2:53 PM)100% (May 11, 3:03 AM)30.50 "Hg (May 11, 3:03 AM)
Low41 °F (May 14, 4:53 AM)25% (May 22, 5:53 PM)29.78 "Hg (May 11, 6:53 PM)
Average62 °F65%30.12 "Hg
* Reported May 9 8:53 PM — May 24 8:53 PM, Livonia, Weather by CustomWeather, © 2015

Note: Actual official high and low records may vary slightly from our data, if they occured in-between our weather recording intervals... More about our weather records

Advertising

Livonia weather history for previous 24 hours

 ConditionsComfort  
Time TempWeatherWind HumidityBarometerVisibility
8:53 PM
Sun, May 24
74 °FBroken clouds.7 mph43%30.09 "Hg10 mi
7:53 PM76 °FBroken clouds.6 mph40%30.11 "Hg10 mi
6:53 PM77 °FBroken clouds.7 mph39%30.12 "Hg10 mi
5:53 PM77 °FMore clouds than sun.6 mph39%30.15 "Hg10 mi
4:53 PM76 °FMore clouds than sun.6 mph42%30.17 "Hg10 mi
3:53 PM78 °FLight rain. More clouds than sun.7 mph43%30.18 "Hg10 mi
2:53 PM78 °FMostly cloudy.8 mph39%30.19 "Hg10 mi
1:53 PM79 °FPartly sunny.6 mph38%30.22 "Hg10 mi
12:53 PM76 °FPartly sunny.9 mph40%30.24 "Hg10 mi
11:53 AM76 °FPartly sunny.10 mph40%30.25 "Hg10 mi
10:53 AM76 °FPartly sunny.13 mph42%30.25 "Hg10 mi
9:53 AM71 °FPartly sunny.7 mph51%30.27 "Hg10 mi
8:53 AM65 °FPartly sunny.3 mph59%30.27 "Hg10 mi
7:53 AM59 °FPartly sunny.5 mph69%30.28 "Hg10 mi
6:53 AM55 °FPassing clouds.5 mph83%30.28 "Hg10 mi
5:53 AM55 °FPassing clouds.No wind74%30.27 "Hg10 mi
4:53 AM54 °FPassing clouds.No wind77%30.25 "Hg10 mi
3:53 AM54 °FClear.No wind77%30.25 "Hg10 mi
2:53 AM54 °FClear.No wind80%30.26 "Hg10 mi
1:53 AM58 °FClear.No wind67%30.26 "Hg10 mi
12:53 AM59 °FClear.No wind62%30.28 "Hg10 mi
11:53 PM
Sat, May 23
58 °FClear.3 mph60%30.29 "Hg10 mi
10:53 PM60 °FClear.No wind56%30.29 "Hg10 mi
Weather by CustomWeather, © 2015

See weather overviewHow to use our weather pages